[[{"header":{"parameterUnit":"m.s-1","parameterCategory":1,"la1":30.2991,"la2":30.254,"lo1":-89.0895,"lo2":-89.0444,"dy":0.0017,"dx":0.0017,"nx":28,"ny":28,"refTime":"2024-10-01T03:00:00:Z","depth":0,"parameterNumber":2,"parameterNumberName":"U-component_of_WINDS"},"data":[0,0,0,0,0,0,0,0,0,0,0,0,0,0,0,0,0,0,0,0,0,0,0,0,0,0,0,0,0,0,0,0,0,0,0,0,0,0,0,0,0,0,0,0,0,0,0,0,0,0,0,0,0,0,0,0,0,0,0.4992,0.4993,0,0.5114,0.5116,0.5117,0.5147,0.5146,0.5146,0.5145,0.5273,0.5277,0.5281,0,0,0,0,0,0,0,0,0,0,0,0,0,0.4786,0.479,0.4992,0.4993,0.4995,0.5114,0.5116,0.5117,0.5147,0.5146,0.5145,0.5144,0.5271,0.5276,0.5281,0,0,0,0,0,0,0,0,0,0,0,0,0,0.4889,0.4791,0.4992,0.5024,0.5028,0.5114,0.5116,0.5118,0.5147,0.5146,0.5145,0.5144,0.527,0.5276,0.5282,0.5344,0,0,0.5301,0.5303,0,0,0,0,0,0,0,0,0.4883,0.4896,0.5018,0.5022,0.5027,0.5114,0.509,0.5194,0.5148,0.5102,0.5145,0.5143,0.5221,0.5231,0.5257,0.535,0.5356,0.5301,0.5305,0.5308,0.531,0,0,0,0,0,0,0,0.4876,0.4891,0.504,0.502,0.5025,0.5033,0.5046,0.511,0.5167,0.5106,0.5109,0.5123,0.5223,0.5251,0.526,0.5358,0.5301,0.5307,0.5311,0.5313,0.5507,0.5508,0,0,0,0,0,0,0.4863,0.4885,0.5037,0.5044,0.495,0.5038,0.5053,0.5087,0.5166,0.5177,0.5123,0.5124,0.5241,0.5253,0.5265,0.5342,0.5308,0.5314,0.5317,0.5506,0.5507,0.5509,0,0,0,0,0,0,0.4858,0.4876,0.5032,0.4965,0.4986,0.5043,0.5081,0.509,0.5118,0.5179,0.519,0.5141,0.524,0.5256,0.5324,0.5347,0.5316,0.5322,0.5504,0.5506,0.5508,0.5497,0,0,0,0,0,0,0.4852,0.4874,0.4898,0.4966,0.4989,0.5088,0.5083,0.5094,0.5128,0.5129,0.5199,0.5209,0.524,0.5314,0.533,0.5355,0.5327,0.5502,0.5505,0.5508,0.5496,0.5499,0.5501,0,0,0,0,0,0.4845,0.4891,0.4899,0.4917,0.502,0.5089,0.5103,0.5138,0.513,0.5155,0.5194,0.5207,0.5342,0.5321,0.5339,0.5366,0.5501,0.5504,0.5507,0.5495,0.5498,0.5501,0,0,0,0,0,0,0.4826,0.4901,0.491,0.498,0.5028,0.5094,0.5127,0.5141,0.5193,0.5192,0.5233,0.5249,0.5313,0.5347,0.5322,0.543,0.5421,0.5428,0.5406,0.541,0.5412,0.5403,0.5332,0,0,0,0,0,0.483,0.4879,0.4942,0.4997,0.5021,0.5069,0.5101,0.5123,0.5175,0.5196,0.524,0.5291,0.5344,0.5379,0.5432,0.5501,0.5516,0.5529,0.5531,0.5533,0.5538,0.5576,0.5582,0.552,0.5519,0.5519,0,0,0.4839,0.4885,0.4914,0.4995,0.5035,0.5085,0.5086,0.514,0.5178,0.5205,0.5271,0.5305,0.5364,0.5432,0.5464,0.5462,0.5559,0.5537,0.5538,0.5543,0.558,0.5586,0.5591,0.5522,0.5521,0.5521,0,0,0.488,0.4921,0.497,0.501,0.507,0.5102,0.5113,0.5178,0.5201,0.5268,0.5288,0.5334,0.5426,0.5467,0.55,0.5555,0.5568,0.5571,0.5586,0.5622,0.5627,0.5631,0.565,0.5656,0.5577,0.5577,0.5577,0,0.4883,0.4959,0.4995,0.5047,0.5081,0.5106,0.5157,0.5194,0.5268,0.5292,0.5288,0.5402,0.5444,0.5522,0.5535,0.5561,0.5575,0.5564,0.5623,0.5628,0.5633,0.5651,0.5658,0.5576,0.5577,0.5577,0.5577,0,0.496,0.5013,0.5046,0.5115,0.5154,0.5205,0.5248,0.5283,0.5302,0.5334,0.5401,0.5452,0.5515,0.5535,0.5555,0.5615,0.5611,0.5615,0.5607,0.5638,0.5656,0.5663,0.5576,0.5576,0.5576,0.5576,0,0,0.4994,0.5081,0.5093,0.5124,0.5191,0.5233,0.5285,0.5345,0.5374,0.5424,0.5469,0.5545,0.5548,0.5585,0.561,0.5641,0.568,0.5641,0.5643,0.5645,0.5749,0.5745,0.5753,0.569,0.5691,0.5692,0.5743,0,0.5043,0.5136,0.5168,0.5245,0.5294,0.5318,0.5363,0.5409,0.5441,0.5487,0.5522,0.5575,0.5575,0.5597,0.563,0.5669,0.5702,0.5666,0.5731,0.5733,0.5715,0.5762,0.5759,0.5805,0.5751,0.5752,0.5753,0,0.5112,0.5162,0.5243,0.5303,0.5325,0.5365,0.5422,0.5466,0.5519,0.5539,0.558,0.5601,0.5657,0.5645,0.5722,0.5697,0.5726,0.5748,0.5751,0.5758,0.5744,0.5769,0.582,0.5827,0.5764,0.5763,0.5763,0,0.5127,0.5214,0.5274,0.53,0.5372,0.5399,0.5431,0.5482,0.5516,0.5567,0.5589,0.5645,0.5676,0.5719,0.5756,0.5744,0.5828,0.5821,0.5847,0.5846,0.5863,0.5861,0.5918,0.5883,0.5883,0.5883,0.5883,0,0.5178,0.5226,0.5281,0.5318,0.5373,0.541,0.5463,0.5496,0.5542,0.5585,0.561,0.565,0.5696,0.5742,0.5771,0.5829,0.5844,0.5862,0.5868,0.5859,0.5856,0.5878,0.5875,0.5885,0.5884,0.5884,0.5883,0,0.5203,0.5242,0.5308,0.537,0.5387,0.5425,0.5478,0.5514,0.5546,0.5601,0.5616,0.5667,0.5722,0.5762,0.5835,0.5854,0.5916,0.5924,0.5898,0.5901,0.5924,0.5921,0.5997,0.6008,0.5965,0.5966,0.5966,0,0.5232,0.527,0.5336,0.5366,0.5397,0.5446,0.548,0.5518,0.5552,0.5614,0.5643,0.57,0.5748,0.5835,0.5879,0.5934,0.5942,0.5965,0.5951,0.5939,0.5941,0.5938,0.5942,0.5967,0.5967,0.5967,0.5967,0,0.528,0.5297,0.5345,0.5399,0.5439,0.5484,0.5529,0.5553,0.5599,0.5636,0.5693,0.5729,0.5802,0.5858,0.5917,0.595,0.5966,0.5971,0.598,0.597,0.5953,0.5961,0.5902,0.5969,0.5969,0.5969,0.5969,0.5969,0.5308,0.5342,0.5393,0.5445,0.5483,0.5524,0.5561,0.5597,0.5644,0.5706,0.5726,0.5784,0.5835,0.5915,0.5949,0.5995,0.5994,0.6007,0.601,0.6013,0.6011,0.5946,0.6006,0.6006,0.6006,0.6006,0.6006,0,0.5356,0.5389,0.5437,0.5499,0.554,0.555,0.5601,0.5634,0.5685,0.5731,0.5777,0.5841,0.5895,0.5942,0.5998,0.6026,0.6035,0.6039,0.6037,0.6044,0.6009,0.5996,0.6031,0.6031,0.6031,0.6031,0.6031,0.6031,0.5385,0.5443,0.5466,0.5542,0.5576,0.5632,0.566,0.5698,0.5735,0.5805,0.585,0.588,0.5926,0.5985,0.6035,0.6048,0.6067,0.6069,0.6084,0.605,0.6047,0.6044,0.6031,0.6074,0.6074,0.6115,0.6115,0.6115]},{"header":{"parameterUnit":"m.s-1","parameterCategory":1,"la1":30.2991,"la2":30.254,"lo1":-89.0895,"lo2":-89.0444,"dy":0.0017,"dx":0.0017,"nx":28,"ny":28,"refTime":"2024-10-01T03:00:00:Z","depth":0,"parameterNumber":3,"parameterNumberName":"V-component_of_WINDS"},"data":[0,0,0,0,0,0,0,0,0,0,0,0,0,0,0,0,0,0,0,0,0,0,0,0,0,0,0,0,0,0,0,0,0,0,0,0,0,0,0,0,0,0,0,0,0,0,0,0,0,0,0,0,0,0,0,0,0,0,0.9653,0.9653,0,0.9678,0.9678,0.9678,0.9616,0.9614,0.9612,0.961,0.9638,0.964,0.9643,0,0,0,0,0,0,0,0,0,0,0,0,0,0.955,0.9552,0.9653,0.9653,0.9653,0.9678,0.9678,0.9678,0.9616,0.9614,0.9612,0.9609,0.9637,0.964,0.9643,0,0,0,0,0,0,0,0,0,0,0,0,0,0.9587,0.9553,0.9653,0.9625,0.9623,0.9678,0.9678,0.9678,0.9617,0.9614,0.9611,0.9608,0.9636,0.964,0.9644,0.9727,0,0,0.9656,0.9657,0,0,0,0,0,0,0,0,0.9585,0.9591,0.9629,0.9627,0.9625,0.9641,0.9652,0.9695,0.9618,0.9619,0.961,0.9607,0.9641,0.9645,0.9656,0.9728,0.9729,0.9656,0.9658,0.966,0.9661,0,0,0,0,0,0,0,0.9583,0.9589,0.9663,0.9629,0.9627,0.9611,0.9613,0.966,0.9647,0.9619,0.9614,0.9618,0.964,0.9652,0.9656,0.973,0.9656,0.9659,0.9662,0.9663,0.9865,0.9868,0,0,0,0,0,0,0.9583,0.9588,0.9662,0.9663,0.9597,0.9616,0.9618,0.9639,0.9646,0.9644,0.9621,0.9615,0.9647,0.9652,0.9657,0.975,0.966,0.9663,0.9666,0.9862,0.9866,0.9869,0,0,0,0,0,0,0.9581,0.9591,0.9661,0.9624,0.9632,0.962,0.9644,0.9641,0.9653,0.9647,0.9645,0.9636,0.9645,0.9651,0.9708,0.975,0.9665,0.9669,0.9858,0.9863,0.9867,0.9939,0,0,0,0,0,0,0.9579,0.959,0.9622,0.9625,0.9634,0.9712,0.9647,0.9643,0.966,0.9653,0.9661,0.9659,0.9643,0.9703,0.9712,0.9754,0.9672,0.9854,0.986,0.9866,0.9933,0.9946,0.9956,0,0,0,0,0,0.9575,0.9643,0.9624,0.9633,0.9674,0.9715,0.972,0.9699,0.9663,0.9694,0.969,0.9659,0.9745,0.9709,0.9719,0.9763,0.9852,0.9859,0.9865,0.9928,0.9943,0.9956,0,0,0,0,0,0,0.9647,0.9643,0.9622,0.9693,0.9704,0.9704,0.9743,0.9717,0.974,0.9732,0.9707,0.9709,0.9769,0.9772,0.9733,0.984,0.9792,0.9801,0.9836,0.985,0.9862,0.9858,0.9675,0,0,0,0,0,0.9671,0.9705,0.97,0.9763,0.9769,0.9755,0.9773,0.9755,0.9766,0.9771,0.9771,0.9784,0.9812,0.9832,0.9859,0.9934,0.9932,0.9968,0.998,0.999,0.9997,1.0031,1.0046,0.9891,0.9891,0.9891,0,0,0.9721,0.9723,0.9746,0.9777,0.9784,0.9817,0.976,0.98,0.9824,0.9778,0.9829,0.983,0.9842,0.9906,0.9935,0.9911,1.0039,0.9999,1.0006,1.0008,1.004,1.0054,1.0067,0.9896,0.9895,0.9894,0,0,0.9828,0.9835,0.9885,0.9892,0.9902,0.9892,0.9904,0.9907,0.9905,0.9957,0.9921,0.995,1.0002,1.001,1.0021,1.0127,1.0098,1.0137,1.0197,1.0231,1.0243,1.0254,1.0287,1.03,1.0145,1.0145,1.0145,0,0.9889,0.9939,0.9915,0.9955,0.9968,0.9926,0.9975,0.9984,1.0003,1.0012,0.9985,1.0045,1.0051,1.0114,1.0139,1.0152,1.0162,1.0135,1.0243,1.0254,1.0263,1.0295,1.0308,1.015,1.0149,1.0149,1.0148,0,1.001,1.0045,1.0085,1.01,1.0119,1.0164,1.0146,1.0167,1.0147,1.014,1.019,1.0195,1.0219,1.0234,1.0218,1.0294,1.0278,1.0248,1.0198,1.0283,1.0311,1.0324,1.0156,1.0154,1.0153,1.0152,0,0,1.0164,1.0163,1.0178,1.0182,1.0189,1.0215,1.0257,1.0279,1.0295,1.031,1.0342,1.0386,1.0356,1.0368,1.0352,1.0382,1.046,1.0348,1.0347,1.0364,1.0539,1.0558,1.0573,1.0442,1.0444,1.0446,1.0536,0,1.0265,1.0335,1.0313,1.0384,1.0413,1.0372,1.0408,1.0415,1.0409,1.0432,1.0426,1.0454,1.0416,1.0422,1.0451,1.0444,1.0494,1.0438,1.0469,1.047,1.0463,1.0589,1.0611,1.0696,1.0548,1.055,1.0551,0,1.0393,1.0409,1.0481,1.0478,1.0489,1.0522,1.0538,1.0562,1.0569,1.0562,1.0574,1.055,1.0589,1.0541,1.0593,1.0555,1.0567,1.0565,1.0568,1.0567,1.0513,1.0587,1.0723,1.0734,1.057,1.0568,1.0567,0,1.0491,1.0531,1.0578,1.0584,1.0583,1.0606,1.0607,1.061,1.0623,1.0638,1.0646,1.0666,1.0676,1.0692,1.0673,1.0641,1.0726,1.0678,1.0718,1.0719,1.0736,1.0734,1.0871,1.075,1.075,1.075,1.075,0,1.0604,1.0649,1.0621,1.0649,1.0697,1.0672,1.072,1.0716,1.0719,1.0745,1.0713,1.0738,1.0714,1.0736,1.0723,1.0765,1.0771,1.0764,1.0759,1.0765,1.0765,1.0769,1.0761,1.0753,1.0753,1.0752,1.0751,0,1.0721,1.0704,1.0751,1.0745,1.0745,1.078,1.0774,1.08,1.079,1.0823,1.083,1.0815,1.0839,1.0822,1.0849,1.0839,1.0892,1.0882,1.0889,1.0885,1.0924,1.0919,1.1066,1.1082,1.0955,1.0956,1.0957,0,1.0792,1.0824,1.0821,1.0835,1.0837,1.0861,1.0873,1.0849,1.0863,1.087,1.0894,1.0916,1.0931,1.0972,1.0963,1.0981,1.0968,1.1018,1.0971,1.0973,1.0963,1.0959,1.096,1.1026,1.1028,1.1029,1.103,0,1.0918,1.0907,1.0925,1.094,1.0954,1.0965,1.0974,1.0987,1.0963,1.098,1.1003,1.1015,1.1039,1.1059,1.1074,1.1074,1.1047,1.1045,1.1055,1.1059,1.106,1.1055,1.0911,1.1042,1.104,1.104,1.1039,1.1039,1.1011,1.1036,1.1035,1.1055,1.1058,1.1066,1.1088,1.1079,1.1098,1.1114,1.11,1.1127,1.1129,1.1145,1.1148,1.1168,1.1148,1.1163,1.1166,1.1169,1.1172,1.106,1.1172,1.1172,1.1171,1.1171,1.1171,0,1.1131,1.1128,1.1147,1.1157,1.1172,1.1145,1.1152,1.1166,1.119,1.1194,1.1209,1.1234,1.1252,1.1244,1.126,1.1278,1.1265,1.1282,1.1279,1.1278,1.1192,1.118,1.1291,1.1291,1.1291,1.1291,1.1291,1.1291,1.1195,1.1234,1.1223,1.1262,1.1259,1.1283,1.1289,1.1295,1.1297,1.1325,1.134,1.1334,1.1333,1.1348,1.1363,1.136,1.1365,1.1386,1.1378,1.1297,1.1285,1.1274,1.1262,1.1388,1.1389,1.1462,1.1462,1.1463]}]]